This is the latest recevied weather packets stored in our database for station/object KD7AWQ. If no packets are shown the sender has not sent any weather packets the latest 10 day(s).
| Time | Temp. | Humidity | Pressure | Rain* | Wind** | Luminosity | Snow |
|---|---|---|---|---|---|---|---|
| 1777641350 | 13.33° C | 65% | 1181.3 hPa | 0 mm | - | 48 W/m² | - |
| 1777641046 | 12.78° C | 65% | 1181 hPa | 0 mm | - | 41 W/m² | - |
| 1777640741 | 12.78° C | 65% | 1181.2 hPa | 0 mm | - | 35 W/m² | - |
| 1777640439 | 12.78° C | 65% | 1180.9 hPa | 0 mm | - | 29 W/m² | - |
| 1777640136 | 12.78° C | 65% | 1181 hPa | 0 mm | - | 24 W/m² | - |
| 1777639833 | 12.78° C | 65% | 1181.1 hPa | 0 mm | - | 19 W/m² | - |
| 1777639530 | 12.78° C | 65% | 1180.9 hPa | 0 mm | - | 14 W/m² | - |
| 1777639226 | 12.78° C | 66% | 1181 hPa | 0 mm | - | 10 W/m² | - |
| 1777638923 | 12.78° C | 65% | 1180.9 hPa | 0 mm | - | 5 W/m² | - |
| 1777638618 | 12.78° C | 66% | 1181.2 hPa | 0 mm | - | 3 W/m² | - |
| 1777638316 | 12.78° C | 65% | 1181 hPa | 0 mm | - | 1 W/m² | - |
| 1777638011 | 12.78° C | 65% | 1180.7 hPa | 0 mm | - | 0 W/m² | - |
| 1777637708 | 12.78° C | 65% | 1180.7 hPa | 0 mm | - | 0 W/m² | - |
| 1777637405 | 12.78° C | 65% | 1180.9 hPa | 0 mm | - | 0 W/m² | - |
| 1777637102 | 12.78° C | 65% | 1180.6 hPa | 0 mm | - | 0 W/m² | - |
| 1777636797 | 12.78° C | 65% | 1180.9 hPa | 0 mm | - | 0 W/m² | - |
| 1777636494 | 12.78° C | 64% | 1180.6 hPa | 0 mm | - | 0 W/m² | - |
| 1777636190 | 12.78° C | 64% | 1180.7 hPa | 0 mm | - | 0 W/m² | - |
| 1777635885 | 12.78° C | 64% | 1181 hPa | 0 mm | - | 0 W/m² | - |
| 1777635582 | 12.78° C | 64% | 1181 hPa | 0 mm | - | 0 W/m² | - |
| 1777635278 | 12.78° C | 65% | 1180.9 hPa | 0 mm | - | 0 W/m² | - |
| 1777634975 | 12.78° C | 65% | 1181 hPa | 0 mm | - | 0 W/m² | - |
| 1777634671 | 12.78° C | 65% | 1180.9 hPa | 0 mm | - | 0 W/m² | - |
| 1777634369 | 12.78° C | 66% | 1181 hPa | 0 mm | - | 0 W/m² | - |
| 1777634066 | 12.78° C | 67% | 1181 hPa | 0 mm | - | 0 W/m² | - |
* Rain latest hour (hover to see other rain measurements)
** Current wind speed in m/s (hover to see current wind gust speed)